Location: Moscow Pond
(43.6842°N, 73.2366°W)
Time: 02:15:10
(UTC+00:00)

Cosmos 1269 Rocket - Pass Details

Date: 08 November 2025
Orbit: 768 x 775 km, 74.1° (Epoch: 04 December)

Event Time Altitude Azimuth Distance (km) Brightness Sun altitude
Exits shadow 10:10:41 17° 319° (NW) 1,878 5.6 -16.1°
Maximum altitude 10:14:17 40° 258° (WSW) 1,135 4.4 -15.4°
Drops below altitude 10° 10:19:09 10° 190° (S) 2,315 6.5 -14.6°
Sets 10:21:38 0° 183° (S) 3,238 7.3 -14.1°
